Weather History for Worcester, MA

Change the Weather History Date:

Monday, January 21, 2013

  Actual Average Record
Temperature  
Mean Temperature 21 °F 24 °F  
Max Temperature 24 °F 31 °F 65 °F (1906)
Min Temperature 17 °F 16 °F -6 °F (1970)
Degree Days  
Heating Degree Days 44 41  
Month to date heating degree days 731 857  
Since 1 July heating degree days 2946 3361  
Cooling Degree Days 0 0  
Month to date cooling degree days 0 0  
Year to date cooling degree days 0 0  
Moisture  
Dew Point 11 °F    
Average Humidity 67    
Maximum Humidity 91    
Minimum Humidity 42    
Precipitation  
Precipitation 0.06 in 0.12 in 2.34 in (1979)
Month to date precipitation 0.64 2.35  
Year to date precipitation 0.64 2.35  
Sea Level Pressure  
Sea Level Pressure 29.92 in    
Wind  
Wind Speed 7 mph (West)    
Max Wind Speed 23 mph    
Max Gust Speed 34 mph    
Visibility 6 miles    
Events Snow    
T = Trace of Precipitation, MM = Missing Value Source: NWS Daily Summary

Daily Weather History Graph

Daily Weather History Graph

Search for Another Location

Airport:

Trip Planner

Search our weather history database for the weather conditions in past years. The results will help you decide how hot, cold, wet, or windy it might be!

Date:

Astronomy

Jan. 21, 2013 Rise Set
Actual Time 7:10 AM EST 4:48 PM EST
Civil Twilight 6:39 AM EST 5:18 PM EST
Nautical Twilight 6:05 AM EST 5:52 PM EST
Astronomical Twilight 5:32 AM EST 6:26 PM EST
Moon 12:25 PM EST (1/21) 2:35 AM EST (1/21)
Length of Visible Light 10h 38m
Length of Day
9h 37m
Waxing Gibbous, 75% of the Moon is Illuminated
Jan 21
Waxing Gibbous
Jan 26
Full
Feb 3
Last Quarter
Feb 10
New
Feb 17
First Quarter

Hourly Weather History & Observations

Time (EST) Temp. Windchill Dew Point Humidity Pressure Visibility Wind Dir Wind Speed Gust Speed Precip Events Conditions
12:54 AM 21.9 °F 6.9 °F 12.0 °F 66% 29.93 in 10.0 mi West 19.6 mph 29.9 mph N/A   Clear
1:54 AM 21.0 °F 5.4 °F 7.0 °F 55% 29.95 in 10.0 mi WNW 20.7 mph 28.8 mph N/A   Clear
2:54 AM 19.9 °F 6.7 °F 5.0 °F 52% 29.98 in 10.0 mi WNW 13.8 mph 28.8 mph N/A   Clear
3:54 AM 19.0 °F 4.0 °F 3.0 °F 50% 29.99 in 10.0 mi WNW 17.3 mph 24.2 mph N/A   Clear
4:54 AM 18.0 °F 6.9 °F 1.9 °F 50% 30.01 in 10.0 mi West 9.2 mph - N/A   Clear
5:54 AM 17.1 °F 8.7 °F 3.0 °F 54% 30.03 in 10.0 mi West 5.8 mph - N/A   Clear
6:54 AM 17.1 °F 4.3 °F 3.0 °F 54% 30.04 in 10.0 mi West 11.5 mph - N/A   Clear
7:54 AM 17.1 °F 8.7 °F 3.9 °F 56% 30.04 in 10.0 mi West 5.8 mph - N/A   Mostly Cloudy
8:54 AM 19.0 °F 10.0 °F 5.0 °F 54% 30.06 in 10.0 mi SW 6.9 mph - N/A   Overcast
9:54 AM 19.0 °F 10.0 °F 5.0 °F 54% 30.08 in 10.0 mi WSW 6.9 mph - N/A   Overcast
10:54 AM 19.9 °F 8.6 °F 3.9 °F 50% 30.05 in 10.0 mi West 10.4 mph - N/A   Overcast
11:54 AM 21.9 °F 11.0 °F 3.9 °F 46% 30.01 in 10.0 mi West 10.4 mph - N/A   Mostly Cloudy
12:54 PM 23.0 °F 12.4 °F 3.9 °F 44% 29.98 in 10.0 mi West 10.4 mph - N/A   Mostly Cloudy
1:54 PM 24.1 °F 13.7 °F 5.0 °F 44% 29.96 in 10.0 mi WSW 10.4 mph - N/A   Overcast
2:54 PM 23.0 °F 17.0 °F 3.9 °F 44% 29.94 in 10.0 mi SSW 4.6 mph - N/A   Overcast
3:54 PM 21.9 °F 11.7 °F 9.0 °F 58% 29.93 in 5.0 mi WSW 9.2 mph - N/A Snow Light Snow
4:36 PM 19.9 °F 11.1 °F 12.9 °F 74% 29.87 in 1.8 mi SSW 6.9 mph - 0.00 in Snow Light Snow
4:43 PM 19.9 °F 12.1 °F 14.0 °F 78% 29.87 in 1.2 mi South 5.8 mph - 0.01 in Snow Light Snow
4:54 PM 19.9 °F 12.1 °F 14.0 °F 78% 29.93 in 2.5 mi SSW 5.8 mph - 0.01 in Snow Light Snow
5:10 PM 19.9 °F 14.9 °F 15.1 °F 81% 29.87 in 1.8 mi SSW 3.5 mph - 0.00 in Snow Light Snow
5:33 PM 19.9 °F - 16.0 °F 85% 29.87 in 2.0 mi Calm Calm - 0.01 in Snow Light Snow
5:54 PM 19.4 °F - 15.8 °F 86% 29.86 in 2.5 mi Calm Calm - N/A Snow Light Snow
6:54 PM 19.9 °F - 16.0 °F 85% 29.91 in 2.0 mi Calm Calm - 0.01 in Snow Light Snow
7:05 PM 19.9 °F - 16.0 °F 85% 29.85 in 1.5 mi Calm Calm - 0.01 in Snow Light Snow
7:34 PM 19.4 °F 14.3 °F 17.6 °F 93% 29.84 in 2.5 mi East 3.5 mph - N/A Snow Light Snow
7:47 PM 19.9 °F 14.9 °F 17.1 °F 89% 29.83 in 3.0 mi ENE 3.5 mph - 0.01 in Snow Light Snow
7:54 PM 19.9 °F 14.9 °F 17.1 °F 89% 29.88 in 4.0 mi NNE 3.5 mph - 0.01 in Snow Light Snow
8:40 PM 19.9 °F - 18.0 °F 92% 29.84 in 1.8 mi Calm Calm - 0.00 in Snow Light Snow
8:54 PM 19.9 °F 14.9 °F 17.1 °F 89% 29.88 in 1.2 mi ENE 3.5 mph - 0.01 in Snow Light Snow
9:12 PM 19.9 °F 14.9 °F 17.1 °F 89% 29.81 in 2.5 mi NNE 3.5 mph - 0.00 in Snow Light Snow
9:27 PM 19.0 °F 13.9 °F 16.0 °F 88% 29.80 in 4.0 mi East 3.5 mph - 0.01 in Snow Light Snow
9:37 PM 19.0 °F 13.9 °F 17.1 °F 92% 29.81 in 9.0 mi ENE 3.5 mph - 0.01 in   Mostly Cloudy
9:44 PM 19.0 °F 13.9 °F 17.1 °F 92% 29.80 in 10.0 mi NE 3.5 mph - 0.01 in   Mostly Cloudy
9:54 PM 19.0 °F - 17.1 °F 92% 29.86 in 9.0 mi Calm Calm - 0.01 in   Mostly Cloudy
10:54 PM 19.0 °F 13.9 °F 17.1 °F 92% 29.81 in 10.0 mi ENE 3.5 mph - N/A   Overcast
11:54 PM 19.0 °F - 18.0 °F 96% 29.78 in 8.0 mi Calm Calm - N/A   Overcast